{"data":{"norad_id":57263,"epoch":"2026-05-25T04:03:57.665952Z","epoch_age_seconds":70474,"freshness":"FRESH","line1":"1 57263U 23094AX  26145.16941743  .00000083  00000+0  12553-4 0  9994","line2":"2 57263  43.0027 318.6670 0000895 257.4095 102.6657 15.27577156158812","mean_motion":15.27577156,"eccentricity":8.95e-5,"inclination_deg":43.0027,"raan_deg":318.667,"arg_perigee_deg":257.4095,"mean_anomaly_deg":102.6657,"bstar":1.2553e-5,"rev_number":15881,"period_min":94.266924216822,"perigee_km":482.44353509421,"apogee_km":483.67168892976,"semimajor_km":6861.194612012,"source":"CELESTRAK","updated_at":"2026-05-25T13:38:18.282042Z"}}